BAW2AW EGCC-EGKK

Flight info

Callsign BAW2AW
Flight time 0h 45m
Altitude 19000
Route LISTO L612 HON N859 KIDLI
Aircraft A320/M-SDE3FGHIRWY/LB1

Departure

Time 2026-05-04 16:17
Airport Manchester Airport (EGCC)

Arrival

Time 2026-05-04 17:02
Airport London Gatwick Airport (EGKK)
Time Latitude Longitude Altitude Speed Heading
2026-05-04 15:49 53.36166 -2.27698 233 ft 0 kts 14°
2026-05-04 16:01 53.36165 -2.27698 233 ft 1 kts 14°
2026-05-04 16:01 53.36151 -2.27704 233 ft 3 kts 17°
2026-05-04 16:01 53.36132 -2.27715 234 ft 3 kts 23°
2026-05-04 16:01 53.36113 -2.27730 234 ft 3 kts 34°
2026-05-04 16:02 53.36098 -2.27750 235 ft 3 kts 61°
2026-05-04 16:02 53.36094 -2.27772 236 ft 1 kts 103°
2026-05-04 16:02 53.36094 -2.27775 236 ft 0 kts 104°
2026-05-04 16:04 53.36093 -2.27769 233 ft 2 kts 104°
2026-05-04 16:04 53.36085 -2.27718 234 ft 7 kts 104°
2026-05-04 16:05 53.36060 -2.27633 234 ft 9 kts 146°
2026-05-04 16:05 53.35990 -2.27629 233 ft 12 kts 186°
2026-05-04 16:05 53.35799 -2.27661 233 ft 14 kts 186°
2026-05-04 16:06 53.35700 -2.27621 233 ft 16 kts 159°
2026-05-04 16:06 53.35571 -2.27458 233 ft 0 kts 141°
2026-05-04 16:09 53.35555 -2.27436 236 ft 6 kts 141°
2026-05-04 16:10 53.35440 -2.27279 239 ft 16 kts 141°
2026-05-04 16:11 53.35159 -2.27248 233 ft 3 kts 192°
2026-05-04 16:11 53.35152 -2.27250 234 ft 0 kts 192°
2026-05-04 16:15 53.34999 -2.27344 233 ft 0 kts 230°
2026-05-04 16:16 53.34937 -2.27470 233 ft 46 kts 231°
2026-05-04 16:16 53.33259 -2.30897 656 ft 170 kts 228°
2026-05-04 16:17 53.31907 -2.34183 1925 ft 186 kts 259°
2026-05-04 16:18 53.33347 -2.41115 2984 ft 254 kts 265°
2026-05-04 16:18 53.32753 -2.43928 3847 ft 264 kts 235°
2026-05-04 16:19 53.27665 -2.45406 6722 ft 275 kts 161°
2026-05-04 16:19 53.24197 -2.42465 8489 ft 284 kts 152°
2026-05-04 16:20 53.18805 -2.37700 10502 ft 316 kts 153°
2026-05-04 16:20 53.14628 -2.34044 11055 ft 357 kts 153°
2026-05-04 16:21 53.07908 -2.28157 13136 ft 369 kts 153°
2026-05-04 16:22 53.03320 -2.24155 14512 ft 376 kts 153°
2026-05-04 16:22 52.96326 -2.18093 16381 ft 384 kts 153°
2026-05-04 16:23 52.89156 -2.11906 18281 ft 391 kts 153°
2026-05-04 16:24 52.79456 -2.03537 19071 ft 394 kts 153°
2026-05-04 16:25 52.74589 -1.99364 19072 ft 394 kts 153°
2026-05-04 16:26 52.65695 -1.91770 19065 ft 393 kts 153°
2026-05-04 16:26 52.58407 -1.85571 18948 ft 398 kts 154°
2026-05-04 16:27 52.52528 -1.80592 19057 ft 414 kts 154°
2026-05-04 16:28 52.45716 -1.74826 19057 ft 414 kts 154°
2026-05-04 16:28 52.38039 -1.68372 19056 ft 413 kts 154°
2026-05-04 16:29 52.27295 -1.62004 19056 ft 411 kts 163°
2026-05-04 16:30 52.19267 -1.57820 17372 ft 400 kts 163°
2026-05-04 16:31 52.14009 -1.55095 16018 ft 393 kts 163°
2026-05-04 16:31 52.06247 -1.51072 15040 ft 390 kts 163°
2026-05-04 16:32 51.98502 -1.47083 15033 ft 391 kts 163°
2026-05-04 16:33 51.93469 -1.44487 15032 ft 371 kts 163°
2026-05-04 16:33 51.88558 -1.41960 15028 ft 370 kts 163°
2026-05-04 16:34 51.83654 -1.39458 15028 ft 370 kts 164°
2026-05-04 16:34 51.81219 -1.38220 15030 ft 369 kts 164°
2026-05-04 16:35 51.74276 -1.33154 15029 ft 372 kts 148°
2026-05-04 16:35 51.67757 -1.26338 15030 ft 372 kts 149°
2026-05-04 16:36 51.65576 -1.24077 15030 ft 372 kts 149°
2026-05-04 16:36 51.61254 -1.19593 15028 ft 372 kts 149°
2026-05-04 16:37 51.56904 -1.15076 15029 ft 372 kts 149°
2026-05-04 16:37 51.54726 -1.12825 15032 ft 372 kts 149°
2026-05-04 16:37 51.50364 -1.08329 14809 ft 377 kts 149°
2026-05-04 16:38 51.45841 -1.03684 15028 ft 392 kts 149°
2026-05-04 16:39 51.39000 -0.96645 15003 ft 393 kts 149°
2026-05-04 16:39 51.34403 -0.91923 15003 ft 393 kts 149°
2026-05-04 16:40 51.29838 -0.87263 14170 ft 386 kts 149°
2026-05-04 16:40 51.25343 -0.82698 12782 ft 380 kts 149°
2026-05-04 16:41 51.20958 -0.78235 11840 ft 362 kts 149°
2026-05-04 16:41 51.15184 -0.72372 11387 ft 296 kts 149°
2026-05-04 16:42 51.10065 -0.67205 10433 ft 288 kts 149°
2026-05-04 16:43 51.06713 -0.63782 9804 ft 286 kts 144°
2026-05-04 16:43 51.04255 -0.58867 9250 ft 287 kts 117°
2026-05-04 16:43 51.03377 -0.56036 8719 ft 284 kts 117°
2026-05-04 16:44 50.99903 -0.44968 6636 ft 274 kts 118°
2026-05-04 16:45 50.98929 -0.39610 6238 ft 247 kts 80°
2026-05-04 16:46 51.02568 -0.35499 4840 ft 234 kts 351°
2026-05-04 16:46 51.05734 -0.36460 3856 ft 232 kts 346°
2026-05-04 16:47 51.08859 -0.37528 3299 ft 220 kts 346°
2026-05-04 16:47 51.11659 -0.38089 3086 ft 196 kts 15°
2026-05-04 16:48 51.12903 -0.32580 3005 ft 185 kts 77°
2026-05-04 16:48 51.13197 -0.30602 3007 ft 183 kts 77°
2026-05-04 16:49 51.13751 -0.26713 3012 ft 181 kts 77°
2026-05-04 16:49 51.14297 -0.22798 3010 ft 181 kts 77°
2026-05-04 16:50 51.14843 -0.18877 3011 ft 181 kts 77°
2026-05-04 16:50 51.15413 -0.14792 3419 ft 195 kts 80°
2026-05-04 16:51 51.14373 -0.11150 3901 ft 193 kts 155°
2026-05-04 16:51 51.13100 -0.10512 3992 ft 191 kts 169°
2026-05-04 16:51 51.10754 -0.11502 4001 ft 185 kts 236°
2026-05-04 16:52 51.09759 -0.15263 4004 ft 185 kts 251°
2026-05-04 16:52 51.09342 -0.17193 4008 ft 185 kts 251°
2026-05-04 16:53 51.08511 -0.21061 4011 ft 184 kts 251°
2026-05-04 16:53 51.07279 -0.26850 4006 ft 184 kts 251°
2026-05-04 16:54 51.06894 -0.28759 4003 ft 184 kts 256°
2026-05-04 16:55 51.06097 -0.36812 4006 ft 185 kts 261°
2026-05-04 16:55 51.05730 -0.40854 4014 ft 184 kts 261°
2026-05-04 16:56 51.05368 -0.44808 3471 ft 179 kts 261°
2026-05-04 16:56 51.06583 -0.49786 3022 ft 190 kts 339°
2026-05-04 16:57 51.07851 -0.50303 3012 ft 190 kts 347°
2026-05-04 16:57 51.10256 -0.48895 3017 ft 197 kts 47°
2026-05-04 16:58 51.11485 -0.42927 3006 ft 179 kts 78°
2026-05-04 16:58 51.11754 -0.41008 2867 ft 177 kts 77°
2026-05-04 16:59 51.12284 -0.37222 2437 ft 175 kts 78°
2026-05-04 17:00 51.13326 -0.29754 1471 ft 170 kts 78°
2026-05-04 17:00 51.14002 -0.24890 774 ft 132 kts 77°
2026-05-04 17:01 51.14394 -0.22066 420 ft 130 kts 77°
2026-05-04 17:01 51.14763 -0.19397 213 ft 70 kts 78°
2026-05-04 17:02 51.14842 -0.18820 213 ft 24 kts 78°
2026-05-04 17:02 51.14977 -0.18440 209 ft 14 kts 51°
2026-05-04 17:03 51.15026 -0.18343 207 ft 4 kts 51°
2026-05-04 17:03 51.15041 -0.18313 205 ft 0 kts 51°
2026-05-04 17:05 51.15108 -0.18194 215 ft 11 kts 35°
2026-05-04 17:05 51.15141 -0.17978 208 ft 13 kts 78°
2026-05-04 17:06 51.15195 -0.17596 206 ft 22 kts 78°
2026-05-04 17:06 51.15226 -0.17381 207 ft 18 kts 69°
2026-05-04 17:07 51.15477 -0.17414 205 ft 21 kts 348°
2026-05-04 17:07 51.15540 -0.17435 211 ft 15 kts 351°
2026-05-04 17:07 51.15610 -0.17263 210 ft 17 kts 76°
2026-05-04 17:07 51.15636 -0.17086 208 ft 14 kts 78°
2026-05-04 17:08 51.15662 -0.16944 209 ft 11 kts 50°
2026-05-04 17:08 51.15745 -0.16860 210 ft 4 kts 31°